Hourly Data Report for September 26, 2017

All times are specified in Local Standard Time (LST). Add 1 hour to adjust for Daylight Saving Time where and when it is observed.

OTTAWA INTL A
ONTARIO

45°19'00.000" N
75°40'00.000" W
114.90 m
6106001
71628
YOW

Download Data

Hourly Data (September 2017)
Hourly Data Report for September 26, 2017
Temp Definition
°C
Dew Point Temp Definition
°C
Rel Hum Definition
%
Wind Dir Definition
10's deg

Wind Spd Definition
km/h
Visibility Definition
km
Stn Press Definition
kPa
Hmdx Definition


Wind Chill Definition


Weather Definition


TIME
00:00 Legend Double Dagger 21.0 18.9 88 25 5 24.1 100.25 28   LegendNANA
01:00 Legend Double Dagger 20.4 19.0 92 26 7 24.1 100.25 27   Clear
02:00 Legend Double Dagger 19.2 18.2 94 22 4 24.1 100.23     LegendNANA
03:00 Legend Double Dagger 19.7 18.2 91 20 9 24.1 100.25     LegendNANA
04:00 Legend Double Dagger 18.9 18.1 95 20 5 24.1 100.27     Clear
05:00 Legend Double Dagger 18.2 17.6 96 17 6 24.1 100.24     LegendNANA
06:00 Legend Double Dagger 17.8 17.3 96 19 7 24.1 100.26     LegendNANA
07:00 Legend Double Dagger 18.9 18.2 95 19 6 24.1 100.28     Mainly Clear
08:00 Legend Double Dagger 20.7 18.7 88 23 5 24.1 100.27 27   LegendNANA
09:00 Legend Double Dagger 24.0 19.8 77 18 5 24.1 100.26 31   LegendNANA
10:00 Legend Double Dagger 26.9 19.6 64 23 3 24.1 100.27 34   Mainly Clear
11:00 Legend Double Dagger 27.2 19.7 63 24 3 24.1 100.24 35   LegendNANA
12:00 Legend Double Dagger 28.4 19.3 57 30 5 24.1 100.21 35   LegendNANA
13:00 Legend Double Dagger 29.6 18.7 51 14 4 24.1 100.13 36   Mostly Cloudy
14:00 Legend Double Dagger 29.4 18.5 51 18 11 24.1 100.09 36   LegendNANA
15:00 Legend Double Dagger 30.3 19.7 52 17 12 24.1 100.03 38   LegendNANA
16:00 Legend Double Dagger 29.2 19.6 56 18 13 24.1 99.99 36   Mostly Cloudy
17:00 Legend Double Dagger 27.2 21.1 69 16 6 24.1 99.98 36   LegendNANA
18:00 Legend Double Dagger 25.1 20.5 75 17 9 24.1 99.97 33   LegendNANA
19:00 Legend Double Dagger 24.3 20.2 78 17 9 24.1 99.97 32   Mainly Clear
20:00 Legend Double Dagger 23.0 20.0 83 16 9 24.1 99.96 31   LegendNANA
21:00 Legend Double Dagger 22.6 20.0 85 19 8 24.1 99.94 30   LegendNANA
22:00 Legend Double Dagger 22.2 19.8 86 19 7 24.1 99.92 30   Clear
23:00 Legend Double Dagger 21.8 19.7 88 19 9 24.1 99.88 29   LegendNANA

Notes on Data Quality.

Legend

  • E = Estimated
  • M = Missing
  • NA = Not Available
  • ‡ = Partner data that is not subject to review by the National Climate Archives
Date modified: